COSMOS 2499 DEB, 49936

Orbit data source: Space-Track

COSMOS 2499 DEB, 49936 is space debris in LEO originally from a launch on Fri, 23 May 2014 UTC launched from the Plesetsk Missile And Space Complex (PKMTR). Debris objects in space refer to the collection of defunct objects orbiting the Earth. Examples of debris include non-operational satellites, rocket bodies, and fragments generated from explosions, collisions, or faulty payload assembly.

Loading next visibility...
Identifier
49936, 2014-028T
Orbit
LEO
Country
Flag of CISCIS
Related business
Manufacturer
TsNIIKhM
Mission
Spacecraft
Bus & Motor
Unknown
Mass
Unknown
Launch date (UTC)
2014-05-23 (12 years ago)
Launch vehicle
Unknown
Launch site
Plesetsk Missile And Space Complex (PKMTR)
Object type
Payload
Rocket body
Debris
Shape & HBR
Unknown shape, 0.1 m
Radar Cross Section
Small (<0.1 m²)

Expand to show TLE details & history
Last TLE update: 2 weeks ago

TLE from 2 weeks ago
0 COSMOS 2499 DEB
1 49936U 14028T   25334.35165957  .00007033  00000-0  16133-1 0  9992
2 49936  82.5573  14.3418 0299072 335.1913  23.5068 13.10324852 62920
Epoch: 2025-11-30T08:26Z
TLE epoch observation values (Epoch: 2025-11-30T08:26:23.386Z)
Latitude
-0.00001°
Longitude
178.2776°
Altitude
1,017.363 km
Speed
7.442 km/s
True Right ascension
00h 57m 22s
True Declination
0° 00' 00"
Sunlit
Object was in full shadow at epoch
Visualization orbit readout
Latitude
Unknown
Longitude
Unknown
Altitude
Unknown
Speed
Unknown
Apparent Right ascension
Unknown
Apparent Declination
Unknown
Sunlit
N/A
Visualization observer readout
Local Sidereal Time
12:47:33
Azimuth
Unknown
Elevation
Unknown
Doppler factor
Unknown
Orbital elements
Apogee altitude
1,446.366 km
Perigee altitude
991.939 km
Semi-major axis
7,597.29 km
Eccentricity
0.02991
Inclination
82.5573°
RAAN
14.3418°
Arg. of periapsis
335.1913°
True anomaly
24.92204°
Mean anomaly
23.5068°
Eccentric anomaly
24.20948°
Mean motion
3.27759 °/min
Orbital period
109.84 mins
BSTAR
0.016133
Loading maneuver chart data...
Computing Atmospheric mass density...
Loading historical data...
Loading historical data...
Loading historical data...
Loading historical data...
Loading historical data...
Loading historical data...
Loading historical data...

Documentation

Showing up to 5 results
|